Regional Weather Roundup
Issued by NWS

Home | Current Version | Previous Version | Graphics & Text | Print | Product List | Glossary On
Versions: 1 2 3 4 5 6 7 8 9 10 11 12 13 14 15 16 17 18 19 20 21 22 23 24 25 26 27 28 29 30 31 32 33 34 35 36 37 38 39 40 41 42 43 44 45 46 47 48 49 50
000
ASUS43 KDTX 310610
RWRMI
MICHIGAN HOURLY REGIONAL WEATHER ROUNDUP
NATIONAL WEATHER SERVICE DETROIT/PONTIAC MI
200 AM EDT THU JUL 31 2014

NOTE: "FAIR" INDICATES FEW OR NO CLOUDS BELOW 12,000 FEET WITH NO
SIGNIFICANT WEATHER AND/OR OBSTRUCTION TO VISIBILITY.

MIZ047>049-052>055-059>063-066>070-074>076-081>083-310700-
SOUTHEAST LOWER MICHIGAN

CITY           SKY/WX    TMP DP  RH WIND       PRES   REMARKS
ADRIAN         CLEAR     58  55  90 NW3       30.03R
6HR MIN TEMP:  58; 6HR MAX TEMP:  69;

ALMA           MOCLDY    54  49  86 CALM      30.01S
6HR MIN TEMP:  53; 6HR MAX TEMP:  69;

ANN ARBOR      FOG       53  51  93 CALM      30.01S VSB 3/4
BAD AXE        CLOUDY    56  55  96 SE3       29.98F
6HR MIN TEMP:  56; 6HR MAX TEMP:  64;

CARO           MOCLDY    58  58 100 CALM      29.97S
DETROIT CITY   MOCLDY    64  57  78 W7        29.99S
6HR MIN TEMP:  63; 6HR MAX TEMP:  70; 6HR PCP:  0.01;

DETROIT        MOCLDY    59  57  93 SW6       30.01S
6HR MIN TEMP:  59; 6HR MAX TEMP:  68; 6HR PCP:  0.04;

FLINT          MOCLDY    58  51  78 W5        29.99S
6HR MIN TEMP:  58; 6HR MAX TEMP:  69;

GROSSE ILE     PTCLDY    61  57  88 W3        29.99S
HILLSDALE      CLEAR     52  52 100 CALM      30.03S
6HR MIN TEMP:  52; 6HR MAX TEMP:  72;

HOWELL         PTCLDY    54  51  90 W5        30.01R

CITY           SKY/WX    TMP DP  RH WIND       PRES   REMARKS
JACKSON        CLEAR     55  51  86 CALM      30.02S
6HR MIN TEMP:  55; 6HR MAX TEMP:  67;

LAMBERTVILLE   PTCLDY    59  57  94 CALM      30.02S
LANSING        CLEAR     53  49  86 CALM      30.02S
6HR MIN TEMP:  53; 6HR MAX TEMP:  70;

LAPEER         FAIR      57  55  94 CALM      29.99R
MASON          CLEAR     55  49  81 W3        30.01S
MONROE         PTCLDY    57  55  94 W3        30.00S FOG
MT. CLEMENS    MOCLDY    61  59  91 SW6       29.97S
6HR MIN TEMP:  59; 6HR MAX TEMP:  66; 6HR PCP: TRACE;

PONTIAC        PTCLDY    59  53  80 W5        29.99S
6HR MIN TEMP:  59; 6HR MAX TEMP:  66; 6HR PCP: TRACE;

PORT HOPE        N/A     60  54  80 E10       29.97S
6HR MIN TEMP:  58; 6HR MAX TEMP:  64; 6HR PCP:  0.68;

PORT HURON     CLOUDY    57  57 100 CALM      29.97F FOG
TRI CITIES     CLOUDY    59  53  80 W3        30.00S
6HR MIN TEMP:  59; 6HR MAX TEMP:  73;

TROY           PTCLDY    61  57  87 W6        30.00S
SAGINAW HB     MOCLDY    59  55  88 W5        29.98S
$$
MIZ043>046-050>051-056>058-064>065-071>073-077>080-310700-
SOUTHWEST LOWER MICHIGAN

CITY           SKY/WX    TMP DP  RH WIND       PRES   REMARKS
BATTLE CREEK   CLEAR     55  49  80 SW5       30.03S
6HR MIN TEMP:  55; 6HR MAX TEMP:  70;

BENTON HARBOR  CLEAR     52  51  97 CALM      30.03F
6HR MIN TEMP:  51; 6HR MAX TEMP:  64;

BIG RAPIDS     MOCLDY    54  54 100 CALM      30.00S
6HR MIN TEMP:  54; 6HR MAX TEMP:  67;

COLDWATER      CLEAR     55  54  96 CALM      30.04R FOG
6HR MIN TEMP:  55; 6HR MAX TEMP:  72;

FREMONT        FAIR      54  52  94 CALM      30.00S
6HR MIN TEMP:  51; 6HR MAX TEMP:  67;

HOLLAND        CLEAR     54  50  86 CALM      30.02F
6HR MIN TEMP:  53; 6HR MAX TEMP:  66;

GRAND RAPIDS   CLEAR     57  51  80 CALM      30.02S
6HR MIN TEMP:  56; 6HR MAX TEMP:  71;

IONIA          FAIR      53  48  84 W5        30.01S
KALAMAZOO      CLEAR     56  53  90 S3        30.03F
6HR MIN TEMP:  54; 6HR MAX TEMP:  70;

LUDINGTON      CLOUDY    60  49  68 SW8       29.99S
6HR MIN TEMP:  55; 6HR MAX TEMP:  63;

MARSHALL       CLEAR     51  50  97 CALM      30.02S
MOUNT PLEASANT MOCLDY    55  51  87 CALM      30.00R
6HR MIN TEMP:  55; 6HR MAX TEMP:  71;

MUSKEGON       PTCLDY    56  53  90 SW6       30.01S
6HR MIN TEMP:  52; 6HR MAX TEMP:  67;

SOUTH HAVEN    CLEAR     50  50 100 CALM      30.03S
$$
MIZ016>042-310700-
NORTHERN LOWER MICHIGAN

CITY           SKY/WX    TMP DP  RH WIND       PRES   REMARKS
ALPENA         CLOUDY    55  54  96 CALM      29.98S
6HR MIN TEMP:  54; 6HR MAX TEMP:  62; 6HR PCP:  0.02;

BEAVER ISLAND    N/A     51  51 100 E3        29.96S FOG
6HR MIN TEMP:  51; 6HR MAX TEMP:  57;

BELLAIRE       CLOUDY    55  52  91 CALM      29.97F
6HR MIN TEMP:  53; 6HR MAX TEMP:  63;

CADILLAC       MOCLDY    51  49  95 SW3       29.99S
CHARLEVOIX     MOCLDY    58  56  94 CALM      30.00S
6HR MIN TEMP:  57; 6HR MAX TEMP:  63;

FRANKFORT      MOCLDY    59  53  78 CALM      29.98F
GAYLORD        CLOUDY    55  52  89 S3        29.98F
6HR MIN TEMP:  54; 6HR MAX TEMP:  61; 6HR PCP:  0.05;

GRAYLING       CLOUDY    56  53  89 CALM      29.99S
6HR MIN TEMP:  54; 6HR MAX TEMP:  63;

HARBOR SPRINGS MOCLDY    56  54  94 N3        29.97R
HOUGHTON LAKE  CLOUDY    51  50  96 CALM      29.99S
6HR MIN TEMP:  50; 6HR MAX TEMP:  66;

MANISTEE       MOCLDY    54  50  87 CALM      29.99S
OSCODA         CLOUDY    56  55  94 CALM      29.98R
PELLSTON       CLOUDY    54  53  97 CALM      29.97S
6HR MIN TEMP:  52; 6HR MAX TEMP:  63; 6HR PCP:  0.01;

ROGERS CITY    CLOUDY    56  55  97 SW5       29.98S
TRAVERSE CITY  MOCLDY    58  49  72 CALM      29.97S
6HR MIN TEMP:  58; 6HR MAX TEMP:  67;

$$
MIZ007>008-015-310700-
EASTERN UPPER MICHIGAN

CITY           SKY/WX    TMP DP  RH WIND       PRES   REMARKS
KINROSS        MOCLDY    54  54 100 SW5       29.95S
6HR MIN TEMP:  54; 6HR MAX TEMP:  57; 6HR PCP:  0.01;

MACKINAC ISLAN CLOUDY    57  56  94 SW5       29.96S
6HR MIN TEMP:  57; 6HR MAX TEMP:  60;

NEWBERRY       MOCLDY    51  50  97 SW5       29.95S
6HR MIN TEMP:  50; 6HR MAX TEMP:  58;

S. S. MARIE    MOCLDY    53  50  89 CALM      29.94F
6HR MIN TEMP:  52; 6HR MAX TEMP:  57;

MUNISING         N/A     53  50  89 S6        29.94S
6HR MIN TEMP:  52; 6HR MAX TEMP:  62;

$$
MIZ004>006-011>014-085-310700-
CENTRAL UPPER MICHIGAN

CITY           SKY/WX    TMP DP  RH WIND       PRES   REMARKS
MANISTIQUE     FOG       47  46  99 CALM      29.95S VSB 3/4
ESCANABA       MOCLDY    52  48  87 CALM      29.96S VSB 1
6HR MIN TEMP:  52; 6HR MAX TEMP:  64;

MENOMINEE      PTCLDY    57  54  88 CALM      29.96S
6HR MIN TEMP:  57; 6HR MAX TEMP:  66; 6HR PCP:  0.09;

SAWYER-GWINN   PTCLDY    51  50  95 CALM      29.97S
6HR MIN TEMP:  50; 6HR MAX TEMP:  57;

$$
MIZ001>003-009>011-084-310700-
WESTERN UPPER MICHIGAN

CITY           SKY/WX    TMP DP  RH WIND       PRES   REMARKS
IRON MOUNTAIN  FOG       51  51 100 CALM      29.97S VSB 1
6HR MIN TEMP:  50; 6HR MAX TEMP:  61; 6HR PCP: TRACE;

HOUGHTON       PTCLDY    58  54  86 W8        29.94F
6HR MIN TEMP:  54; 6HR MAX TEMP:  63;

COPPER HARBOR    N/A     60  54  80 SW5       29.92S
6HR MIN TEMP:  59; 6HR MAX TEMP:  65;

IRONWOOD       CLEAR     54  54 100 CALM      29.96
$$

ABBREVIATIONS USED IN REMARKS
   TC - TEMPERATURE IN CELSIUS
  WCI - WIND CHILL INDEX
   HX - HEAT INDEX
  VSB - VISIBILITY




USA.gov is the U.S. government's official web portal to all federal, state and local government web resources and services.